Showing default

ZHUHAI-1 01, 42761

Orbit data source: Space-Track

ZHUHAI-1 01, 42761 is a payload satellite owned by Zhuhai Orbita (CN) in LEO that was launched on Thu, 15 Jun 2017 UTC via a CHANG ZHENG 4B launch vehicle from the Jiuquan Satellite Launch Center, China (JSC). Payloads include a variety of satellites, spacecraft, and rockets equipped with specific instruments for various scientific and technological missions. These include communications satellites like Starlink; space stations such as the ISS; scientific satellites like the Hubble; Earth observation satellites from companies like Planet Labs, Umbra, and HawkEye 360; GPS; miniature CubeSats for education and research; and military/defense satellites.

Loading next visibility...
ZHUHAI-1 01 details
Identifier
42761, 2017-034D
Orbit
LEO
Last TLE update6 hours ago
Origin
Flag of CNZhuhai Orbita (CN / PRC)
ManufacturerZhuhai Orbita
MissionOperational Commercial Imaging
Bus & MotorOVS-1, Unknown motor
Mass50 kg wet, 50 kg dry
Launch date (UTC)
2017-06-15 (8 years ago)
Launch vehicle
CHANG ZHENG 4B
Launch site
Jiuquan Satellite Launch Center, China (JSC)
Object type
Payload
Rocket body
Debris
Shape & HBRBox, 1 m
Radar Cross Section0.375 m², Medium (>0.1 m² and < 1m²)

Expand to show TLE details & history

TLE from 6 hours ago
0 ZHUHAI-1 01
1 42761U 17034D   24361.58994874  .00045673  00000-0  10154-2 0  9993
2 42761  43.0154 207.1283 0017052 233.4345 126.4944 15.42788617416966
Epoch: 2024-12-26T14:09Z
Definitive object data (Epoch: 2024-12-26T14:09:31.571Z)
Latitude0.00004°
Longitude-100.82037°
Altitude444.583 km
Speed7.643 km/s
True Right ascension13h 48m 30s
True Declination0° 00' 00"
Sunlit
Object was in daylight at TLE epoch
Visualization TLE readout
Latitude-1.81552°
Longitude-104.25075°
Altitude444.033 km
Speed7.644 km/s
Apparent Right ascension11h 15m 22s
Apparent Declination-26° 35' 06"
Sunlit
Object is in daylight
Visualization observer readout
Local Sidereal Time19:44:33
Azimuth270.359° WNW
Elevation-44.65°
Doppler factor1
Orbital elements
Apogee altitude451.465 km
Perigee altitude428.213 km
Semi-major axis6,817.976 km
Eccentricity0.0017052
Inclination43.0154°
RAAN207.1283°
Arg. of periapsis233.4345°
True anomaly126.65129°
Mean anomaly126.4944°
Eccentric anomaly126.57286°
Mean motion3.85532 °/min
BSTAR0.0010154
Orbital period93.38 mins
Loading maneuver chart data...
Loading historical data...
Loading historical data...
Loading historical data...
Loading historical data...
Loading historical data...
Loading historical data...
Loading historical data...

ZHUHAI-1 01 Visibility forecast

Observer location: undefined°, undefined

Span
Click to sort rows by Start time (UTC) header in descending order
Start Az.
Max El. time (UTC)
Max El. Az.
Max El.
End time (UTC)
End Az.
6 mins2024-12-26 20:43:44.537Z287.38° WNW2024-12-26 20:46:44.537Z336.491° NNW36.367°2024-12-26 20:49:44.537Z78.21° E
5 mins2024-12-26 22:22:44.537Z283.305° WNW2024-12-26 22:24:44.537Z253.976° W40.519°2024-12-26 22:27:44.537Z121.048° SE
5 mins2024-12-27 16:46:44.537Z198.164° SSW2024-12-27 16:48:44.537Z150.13° SSE25.22°2024-12-27 16:51:44.537Z88.885° E
5 mins2024-12-27 18:24:44.537Z262.387° W2024-12-27 18:26:44.537Z21.942° NNE43.554°2024-12-27 18:29:44.537Z70.273° E
5 mins2024-12-27 20:02:44.537Z295.232° NW2024-12-27 20:04:44.537Z4.949° NNE37.23°2024-12-27 20:07:44.537Z77.148° E
|